Marshall, MN

3:12 PM CDT on August 25, 2016 (GMT -0500)
Marshall Municipal-Ryan

Weather History for KMML - December, 2012

Change the Weather History Date:

Wednesday, December 12, 2012

  Actual Average Record
Temperature  
Mean Temperature 25 °F -  
Max Temperature 42 °F 29 °F 51 °F (1998)
Min Temperature 8 °F 12 °F -13 °F (2000)
Degree Days  
Heating Degree Days 40    
Moisture  
Dew Point 18 °F    
Average Humidity 69    
Maximum Humidity 100    
Minimum Humidity 42    
Precipitation  
Precipitation 0.00 in - - ()
Sea Level Pressure  
Sea Level Pressure 29.79 in    
Wind  
Wind Speed 10 mph (SSW)    
Max Wind Speed 26 mph    
Max Gust Speed 30 mph    
Visibility 9 miles    
Events      
Averages and records for this station are not official NWS values.
T = Trace of Precipitation, MM = Missing Value Source: NWS Daily Summary

Daily Weather History Graph

Daily Weather History Graph

Search for Another Location

Airport or City:

Trip Planner

Search our weather history database for the weather conditions in past years. The results will help you decide how hot, cold, wet, or windy it might be!

Date:

Astronomy

Dec. 12, 2012 Rise Set
Actual Time 7:50 AM CST 4:43 PM CST
Civil Twilight 7:17 AM CST 5:17 PM CST
Nautical Twilight 6:40 AM CST 5:53 PM CST
Astronomical Twilight 6:05 AM CST 6:29 PM CST
Moon 6:55 AM CST (12/12) 4:22 PM CST (12/12)
Length of Visible Light 9h 59m
Length of Day
8h 53m
Waning Crescent, 1% of the Moon is Illuminated
Dec 12
Waning Crescent
Dec 13
New
Dec 19
First Quarter
Dec 28
Full
Jan 4
Last Quarter

Hourly Weather History & Observations

Time (CST) Temp. Windchill Dew Point Humidity Pressure Visibility Wind Dir Wind Speed Gust Speed Precip Events Conditions
12:15 AM 10.4 °F -1.5 °F 8.6 °F 92% 29.89 in 0.5 mi SE 8.1 mph - N/A   Overcast
12:35 AM 10.4 °F -0.4 °F 6.8 °F 85% 29.88 in 0.8 mi ESE 6.9 mph - N/A   Overcast
12:55 AM 10.4 °F -0.4 °F 6.8 °F 85% 29.87 in 0.8 mi SE 6.9 mph - N/A   Overcast
1:15 AM 8.6 °F -2.6 °F 5.0 °F 85% 29.86 in 1.5 mi ESE 6.9 mph - N/A   Overcast
1:35 AM 8.6 °F -2.6 °F 5.0 °F 85% 29.86 in 2.0 mi SE 6.9 mph - N/A   Overcast
1:55 AM 8.6 °F -1.3 °F 6.8 °F 92% 29.85 in 1.5 mi SE 5.8 mph - N/A   Overcast
2:15 AM 8.6 °F 0.1 °F 3.2 °F 79% 29.83 in 2.0 mi SE 4.6 mph - N/A   Overcast
2:35 AM 8.6 °F -1.3 °F 3.2 °F 79% 29.83 in 4.0 mi SE 5.8 mph - N/A   Overcast
2:55 AM 8.6 °F -5.5 °F 5.0 °F 85% 29.81 in 4.0 mi SE 10.4 mph - N/A   Overcast
3:15 AM 8.6 °F -1.3 °F 5.0 °F 85% 29.81 in 6.0 mi ESE 5.8 mph - N/A   Scattered Clouds
3:35 AM 8.6 °F -1.3 °F 5.0 °F 85% 29.79 in 7.0 mi SE 5.8 mph - N/A   Clear
3:55 AM 8.6 °F -1.3 °F 5.0 °F 85% 29.78 in 8.0 mi SE 5.8 mph - N/A   Clear
4:15 AM 8.6 °F - 6.8 °F 92% 29.78 in 10.0 mi Calm Calm - N/A   Clear
4:35 AM 10.4 °F 0.8 °F 8.6 °F 92% 29.78 in 10.0 mi ESE 5.8 mph - N/A   Clear
4:55 AM 10.4 °F 2.2 °F 6.8 °F 85% 29.77 in 10.0 mi ESE 4.6 mph - N/A   Clear
5:15 AM 17.6 °F 9.3 °F 15.8 °F 93% 29.77 in 10.0 mi South 5.8 mph - N/A   Clear
5:35 AM 21.2 °F 11.7 °F 21.2 °F 100% 29.76 in 10.0 mi South 8.1 mph - N/A   Clear
5:55 AM 23.0 °F 13.1 °F 19.4 °F 86% 29.75 in 10.0 mi SSE 9.2 mph - N/A   Clear
6:15 AM 24.8 °F 14.6 °F 21.2 °F 86% 29.75 in 10.0 mi South 10.4 mph 25.3 mph N/A   Clear
6:35 AM 24.8 °F 12.9 °F 21.2 °F 86% 29.75 in 10.0 mi SSW 13.8 mph - N/A   Clear
6:55 AM 24.8 °F 10.7 °F 19.4 °F 80% 29.75 in 10.0 mi SSW 19.6 mph - N/A   Scattered Clouds
7:15 AM 24.8 °F 10.7 °F 19.4 °F 80% 29.74 in 10.0 mi SSW 19.6 mph - N/A   Mostly Cloudy
7:35 AM 26.6 °F 12.7 °F 19.4 °F 74% 29.74 in 10.0 mi SSW 20.7 mph 25.3 mph N/A   Scattered Clouds
7:55 AM 26.6 °F 12.4 °F 21.2 °F 80% 29.74 in 10.0 mi SSW 21.9 mph - N/A   Overcast
8:15 AM 26.6 °F 11.1 °F 19.4 °F 74% 29.74 in 10.0 mi SSW 26.5 mph 29.9 mph N/A   Scattered Clouds
8:35 AM 26.6 °F 12.0 °F 19.4 °F 74% 29.75 in 10.0 mi SSW 23.0 mph 28.8 mph N/A   Clear
8:55 AM 28.4 °F 15.1 °F 19.4 °F 69% 29.74 in 10.0 mi SSW 20.7 mph 27.6 mph N/A   Clear
9:15 AM 28.4 °F 15.4 °F 19.4 °F 69% 29.75 in 10.0 mi SSW 19.6 mph - N/A   Clear
9:35 AM 30.2 °F 17.4 °F 21.2 °F 69% 29.75 in 10.0 mi SSW 20.7 mph - N/A   Clear
9:55 AM 30.2 °F 16.8 °F 21.2 °F 69% 29.75 in 10.0 mi SSW 23.0 mph - N/A   Clear
10:15 AM 30.2 °F 16.5 °F 21.2 °F 69% 29.76 in 9.0 mi SSW 24.2 mph 29.9 mph N/A   Clear
10:35 AM 30.2 °F 16.5 °F 21.2 °F 69% 29.76 in 10.0 mi SSW 24.2 mph - N/A   Clear
10:55 AM 30.2 °F 17.1 °F 21.2 °F 69% 29.76 in 10.0 mi SSW 21.9 mph - N/A   Clear
11:15 AM 33.8 °F 22.5 °F 23.0 °F 65% 29.77 in 10.0 mi SW 19.6 mph 26.5 mph N/A   Clear
11:35 AM 33.8 °F 22.2 °F 21.2 °F 60% 29.75 in 10.0 mi SW 20.7 mph 26.5 mph N/A   Clear
11:55 AM 33.8 °F 23.5 °F 21.2 °F 60% 29.75 in 10.0 mi SW 16.1 mph 25.3 mph N/A   Clear
12:15 PM 35.6 °F 26.2 °F 23.0 °F 60% 29.76 in 10.0 mi SSW 15.0 mph - N/A   Clear
12:35 PM 35.6 °F 28.6 °F 23.0 °F 60% 29.76 in 10.0 mi South 9.2 mph - N/A   Clear
12:55 PM 37.4 °F 32.1 °F 24.8 °F 60% 29.76 in 10.0 mi WSW 6.9 mph - N/A   Clear
1:15 PM 37.4 °F 31.4 °F 23.0 °F 56% 29.75 in 10.0 mi SSW 8.1 mph 16.1 mph N/A   Clear
1:35 PM 37.4 °F 30.3 °F 24.8 °F 60% 29.75 in 10.0 mi South 10.4 mph - N/A   Clear
1:55 PM 37.4 °F 32.1 °F 24.8 °F 60% 29.75 in 10.0 mi South 6.9 mph - N/A   Clear
2:15 PM 37.4 °F 32.1 °F 24.8 °F 60% 29.75 in 10.0 mi SSE 6.9 mph - N/A   Clear
2:35 PM 37.4 °F 31.4 °F 24.8 °F 60% 29.75 in 10.0 mi South 8.1 mph - N/A   Clear
2:55 PM 39.2 °F 31.2 °F 24.8 °F 56% 29.75 in 10.0 mi SW 13.8 mph 20.7 mph N/A   Scattered Clouds
3:15 PM 37.4 °F 32.8 °F 24.8 °F 60% 29.76 in 10.0 mi SW 5.8 mph 16.1 mph N/A   Partly Cloudy
3:35 PM 39.2 °F 37.0 °F 24.8 °F 56% 29.77 in 10.0 mi SW 3.5 mph - N/A   Partly Cloudy
3:55 PM 39.2 °F 37.0 °F 24.8 °F 56% 29.78 in 10.0 mi South 3.5 mph - N/A   Mostly Cloudy
4:15 PM 39.2 °F 37.0 °F 24.8 °F 56% 29.78 in 10.0 mi SE 3.5 mph - N/A   Overcast
4:35 PM 41.0 °F 34.7 °F 24.8 °F 53% 29.78 in 10.0 mi SSW 10.4 mph - N/A   Scattered Clouds
4:55 PM 41.0 °F 39.0 °F 24.8 °F 53% 29.79 in 10.0 mi South 3.5 mph - N/A   Scattered Clouds
5:15 PM 41.0 °F 38.0 °F 24.8 °F 53% 29.78 in 10.0 mi ESE 4.6 mph - N/A   Partly Cloudy
5:35 PM 41.0 °F 33.9 °F 24.8 °F 53% 29.78 in 10.0 mi SSW 12.7 mph - N/A   Clear
5:55 PM 41.0 °F 34.7 °F 24.8 °F 53% 29.79 in 10.0 mi SSW 10.4 mph - N/A   Clear
6:15 PM 42.8 °F 36.6 °F 21.2 °F 42% 29.77 in 10.0 mi South 11.5 mph 16.1 mph N/A   Clear
6:55 PM 39.2 °F - 24.8 °F 56% 29.79 in 10.0 mi Calm Calm - N/A   Clear
7:15 PM 41.0 °F 38.0 °F 21.2 °F 45% 29.80 in 10.0 mi South 4.6 mph - N/A   Clear
7:35 PM 42.8 °F 37.5 °F 21.2 °F 42% 29.81 in 10.0 mi SSW 9.2 mph - N/A   Clear
7:55 PM 41.0 °F 35.2 °F 21.2 °F 45% 29.81 in 10.0 mi SSW 9.2 mph - N/A   Clear
8:15 PM 35.6 °F 29.9 °F 19.4 °F 52% 29.82 in 10.0 mi North 6.9 mph - N/A   Clear
8:35 PM 39.2 °F 35.9 °F 19.4 °F 45% 29.82 in 10.0 mi NW 4.6 mph - N/A   Clear
8:55 PM 41.0 °F 35.2 °F 19.4 °F 42% 29.82 in 10.0 mi WSW 9.2 mph - N/A   Clear
9:15 PM 30.2 °F 24.3 °F 15.8 °F 55% 29.83 in 10.0 mi NNW 5.8 mph - N/A   Clear
9:35 PM 30.2 °F 24.3 °F 17.6 °F 60% 29.84 in 10.0 mi NNW 5.8 mph - N/A   Clear
9:55 PM 32.0 °F 27.5 °F 19.4 °F 60% 29.84 in 10.0 mi NW 4.6 mph - N/A   Clear
10:15 PM 26.6 °F 21.2 °F 17.6 °F 69% 29.84 in 10.0 mi WNW 4.6 mph - N/A   Clear
10:35 PM 24.8 °F 16.9 °F 17.6 °F 74% 29.84 in 10.0 mi WNW 6.9 mph - N/A   Clear
10:55 PM 24.8 °F 17.9 °F 17.6 °F 74% 29.85 in 10.0 mi NW 5.8 mph - N/A   Clear
11:15 PM 24.8 °F 16.9 °F 17.6 °F 74% 29.84 in 10.0 mi NW 6.9 mph - N/A   Clear
11:35 PM 23.0 °F 18.4 °F 19.4 °F 86% 29.84 in 10.0 mi NW 3.5 mph - N/A   Clear
11:55 PM 23.0 °F 13.9 °F 17.6 °F 80% 29.85 in 10.0 mi NNW 8.1 mph - N/A   Clear